Regional Weather Roundup
Issued by NWS New Orleans/Baton Rouge, LA

Home | Current Version | Previous Version | Text Only | Print | Product List | Glossary On
Versions: 1 2 3 4 5 6 7 8 9 10 11 12 13 14 15 16 17 18 19 20 21 22 23 24 25 26 27 28 29 30 31 32 33 34 35 36 37 38 39 40 41 42 43 44 45 46 47 48 49 50
709
ASUS44 KLIX 241710
RWRLIX
NEW ORLEANS REGIONAL WEATHER ROUNDUP
NATIONAL WEATHER SERVICE NEW ORLEANS LA
1200 PM CDT THU APR 24 2014

NOTE: "FAIR" INDICATES FEW OR NO CLOUDS BELOW 12,000 FEET WITH NO
      SIGNIFICANT WEATHER AND/OR OBSTRUCTIONS TO VISIBILITY.
      SKY/WX - SKY CONDITION AND SIGNIFICANT WEATHER.
      TMP - AIR TEMPERATURE.     DP    - DEWPOINT TEMPERATURE.
      RH  - RELATIVE HUMIDITY.   PRES  - PRESSURE.
      HI  - HEAT INDEX.          WCI   - WIND CHILL INDEX.

*  THESE STATIONS ARE NOT NWS OR FAA STATIONS AND ARE NOT UNDER
   NWS QUALITY CONTROL.

LAZ038-040-048-061>063-065>067-069-241800-
SOUTHEAST LOUISIANA

CITY           SKY/WX    TMP DP  RH WIND       PRES   REMARKS
N.O. AUDUBON     N/A     83  66  56 MISG        N/A
N.O. INTL ARPT MOSUNNY   80  66  62 S13       29.98F
N.O. LAKEFRONT MOSUNNY   79  62  56 S8        29.98F
N.O. DOWNTOWN* PTSUNNY   82  61  47 S10       29.98F
SLIDELL        MOSUNNY   78  61  55 S10       29.98F
BATON ROUGE    PTSUNNY   80  63  55 S12       29.95F
BOOTHVILLE     SUNNY     74  64  71 S8        30.00F
BELLE CHASSE   PTSUNNY   80  63  55 S9        29.98F
BOGALUSA*        N/A     78  62  57 S7        29.99F
GALLIANO*      MOSUNNY   80  66  61 S8        29.99F
NEW ROADS*       N/A     76  65  67 S9G18     29.94F
GONZALES*        N/A     79  65  63 SE10      29.95F
HAMMOND*       SUNNY     81  59  47 S10       29.98F
HOUMA*         PTSUNNY   79  64  61 SE7       29.99S
PORT FOURCHON* PTSUNNY   75  66  73 SE10      30.01F

$$

MSZ070-080>082-241800-
SOUTHERN MISSISSIPPI

CITY           SKY/WX    TMP DP  RH WIND       PRES   REMARKS
MCCOMB         MOSUNNY   77  62  59 S13       29.95F
GULFPORT       MOSUNNY   78  64  61 SE10      29.98F
BILOXI         MOSUNNY   76  66  73 S9        29.99F
PASCAGOULA     SUNNY     78  66  66 SW7       29.99F
STENNIS ARPT*  MOSUNNY   79  59  50 S12       29.99S

$$

COASTAL OBSERVATIONS
LAKE AND NEARSHORE STATIONS

STATION/POSITION TIME  TEMP    WIND        PRES    WAVE
                       AIR SEA DIR/SP/G            HT/PER
                 (UTC) (F)     (DEG/KT/KT) (MB)    (FT/S)
PASCAGOULA       1700   74     190/  6/  8 1015.1
WAVELAND YACHT   1700   72 74  160/  7/  8 1014.8
GRAND ISLE       1700   73 72  160/  8/  9 1016.4
SOUTHWEST PASS   1700   75 60  140/  5/  6 1016.3
NEW CANAL        1700   73 71   10/  5/  6 1015.5
SHELL BEACH      1700   75 68  160/  7/ 12 1015.2

OFFSHORE STATIONS

STATION/POSITION TIME  TEMP    WIND        PRES    WAVE
                       AIR SEA DIR/SP/G            HT/PER
                 (UTC) (F)     (DEG/KT/KT) (MB)    (FT/S)
64 S DAUPHIN ISL 1616   71 74  180/  4/  4 1016.8

$$




USA.gov is the U.S. government's official web portal to all federal, state and local government web resources and services.